M I D A S
Marine Information and Data Acquisition System
Tripno 1825 of the Zeeleeuw from 2009-12-14 07:26:12 to 2009-12-14 14:51:29
Back to CruiseResearch ActivitiesStationsMapUnderway DataData graphs

EquipmentUnitsComments
TimeDGPSUTC
LatitudeDGPSDM.mWGS84
LongitudeDGPSDM.mWGS84
SpeedMeteo Stationm/sRelative wind speed
DirectionMeteo StationdegRelative wind direction
TemperatureMeteo Stationdeg CelciusAir temperature
PressureMeteo StationPaAtmospheric pressure
HumidityMeteo Station%Relative humidity
Missing or incorrect values are displayed as -999
Metereological data collected by the RV Zeeleeuw from 2009-12-14 07:28:33 to 2009-12-14 15:00:18
                                                                                    Next 1000 lines
Time Latitude Longitude Speed Direction Temperature Pressure Humidity
2009-12-14 07:28:44 51°13.662 2°55.956 -999 307 -1.2 102290 33
2009-12-14 07:28:48 51°13.662 2°55.954 -999 257 -1.2 102290 33
2009-12-14 07:28:53 51°13.663 2°55.951 -999 307 -1.2 102290 33
2009-12-14 07:28:58 51°13.665 2°55.947 -999 263 -1.2 102290 33
2009-12-14 07:29:04 51°13.666 2°55.943 -999 307 -1.2 102290 33
2009-12-14 07:29:10 51°13.667 2°55.938 -999 26 -1.2 102290 33
2009-12-14 07:29:16 51°13.669 2°55.931 -999 307 -1.2 102290 33
2009-12-14 07:29:21 51°13.67 2°55.926 -999 24 -1.2 102290 33
2009-12-14 07:29:27 51°13.671 2°55.918 -999 307 -1.2 102290 33
2009-12-14 07:29:32 51°13.673 2°55.912 -999 22 -1.2 102290 29
2009-12-14 07:29:37 51°13.674 2°55.905 -999 53 -1.2 102290 29
2009-12-14 07:29:42 51°13.675 2°55.897 -999 22 -1.2 102290 33
2009-12-14 07:29:47 51°13.677 2°55.89 -999 53 -1.2 102290 33
2009-12-14 07:29:52 51°13.678 2°55.882 -999 22 -1.2 102290 33
2009-12-14 07:29:57 51°13.68 2°55.874 -999 53 -1.2 102290 33
2009-12-14 07:30:02 51°13.682 2°55.866 -999 22 -1.2 102290 33
2009-12-14 07:30:07 51°13.684 2°55.859 -999 52 -1.2 102290 33
2009-12-14 07:30:12 51°13.686 2°55.851 -999 22 -1.2 102290 33
2009-12-14 07:30:17 51°13.687 2°55.843 -999 53 -1.2 102290 33
2009-12-14 07:30:22 51°13.689 2°55.836 -999 22 -1.2 102290 33
2009-12-14 07:30:27 51°13.691 2°55.828 -999 52 -1.2 102290 33
2009-12-14 07:30:32 51°13.692 2°55.82 -999 22 -1.2 102290 33
2009-12-14 07:30:37 51°13.694 2°55.812 -999 53 -1.2 102290 33
2009-12-14 07:30:42 51°13.695 2°55.805 -999 22 -1.2 102290 33
2009-12-14 07:30:47 51°13.696 2°55.798 -999 308 -1.2 102290 33
2009-12-14 07:30:52 51°13.697 2°55.791 -999 265 -1.2 102290 33
2009-12-14 07:30:57 51°13.697 2°55.784 -999 307 -1.2 102290 33
2009-12-14 07:31:02 51°13.698 2°55.778 -999 261 -1.2 102290 33
2009-12-14 07:31:07 51°13.698 2°55.771 -999 307 -1.2 102290 33
2009-12-14 07:31:12 51°13.698 2°55.766 -999 261 -1.2 102290 33
2009-12-14 07:31:17 51°13.699 2°55.76 -999 308 -1.2 102290 33
2009-12-14 07:31:22 51°13.699 2°55.755 -999 261 -1.2 102290 33
2009-12-14 07:31:27 51°13.699 2°55.75 -999 338 -1.2 102290 33
2009-12-14 07:31:32 51°13.699 2°55.747 -999 328 -1.2 102290 33
2009-12-14 07:31:37 51°13.699 2°55.745 -999 338 -1.2 102290 33
2009-12-14 07:31:41 51°13.699 2°55.743 -999 342 -1.2 102290 33
2009-12-14 07:31:47 51°13.699 2°55.74 -999 329 -1.2 102290 33
2009-12-14 07:31:52 51°13.699 2°55.739 -999 330 -1.2 102290 33
2009-12-14 07:31:57 51°13.7 2°55.737 -999 331 -1.2 102290 33
2009-12-14 07:32:01 51°13.7 2°55.737 -999 333 -1.2 102290 33
2009-12-14 07:32:07 51°13.701 2°55.737 -999 333 -1.2 102290 33
2009-12-14 07:32:12 51°13.702 2°55.737 -999 333 -1.2 102300 32
2009-12-14 07:32:17 51°13.703 2°55.739 0.9 336 -1.2 102300 32
2009-12-14 07:32:21 51°13.704 2°55.74 0.9 345 -1.2 102300 33
2009-12-14 07:32:26 51°13.707 2°55.742 0.9 343 -1.2 102300 33
2009-12-14 07:32:31 51°13.709 2°55.744 1 348 -1.2 102300 34
2009-12-14 07:32:36 51°13.711 2°55.745 0.8 347 -1.2 102300 34
2009-12-14 07:32:41 51°13.713 2°55.746 0.7 351 -1.2 102300 31
2009-12-14 07:32:45 51°13.714 2°55.746 0.5 6 -1.2 102300 31
2009-12-14 07:32:50 51°13.715 2°55.746 0.7 8 -1.2 102300 33
2009-12-14 07:32:56 51°13.715 2°55.746 0.5 13 -1.2 102300 33
2009-12-14 07:33:01 51°13.714 2°55.745 0.5 18 -1.2 102300 32
2009-12-14 07:33:06 51°13.713 2°55.745 0.5 23 -1.2 102300 32
2009-12-14 07:33:11 51°13.712 2°55.744 0.5 25 -1.2 102300 34
2009-12-14 07:33:16 51°13.71 2°55.743 0.5 27 -1.2 102300 34
2009-12-14 07:33:21 51°13.708 2°55.743 0.5 28 -1.2 102300 31
2009-12-14 07:33:27 51°13.705 2°55.742 0.6 26 -1.2 102300 31
2009-12-14 07:33:32 51°13.703 2°55.741 0.3 27 -1.2 102300 36
2009-12-14 07:33:37 51°13.701 2°55.74 0.1 31 -1.2 102300 36
2009-12-14 07:33:42 51°13.7 2°55.74 0.1 31 -1.2 102300 31
2009-12-14 07:33:47 51°13.7 2°55.739 0.4 23 -1.2 102300 31
2009-12-14 07:33:52 51°13.701 2°55.738 0.4 20 -1.2 102300 33
2009-12-14 07:33:57 51°13.703 2°55.737 0.2 11 -1.2 102300 33
2009-12-14 07:34:02 51°13.705 2°55.735 0.1 5 -1.2 102300 34
2009-12-14 07:34:07 51°13.709 2°55.732 -999 -999 -1.2 102300 34
2009-12-14 07:34:12 51°13.713 2°55.728 -999 2 -1.2 102300 32
2009-12-14 07:34:17 51°13.719 2°55.724 -999 356 -1.2 102300 32
2009-12-14 07:34:21 51°13.723 2°55.72 -999 352 -1.2 102300 33
2009-12-14 07:34:26 51°13.73 2°55.715 -999 344 -1.2 102300 33
2009-12-14 07:34:32 51°13.738 2°55.708 -999 347 -1.2 102300 33
2009-12-14 07:34:36 51°13.744 2°55.703 1.4 343 -1.2 102300 33
2009-12-14 07:34:41 51°13.752 2°55.697 2.6 345 -1.2 102300 33
2009-12-14 07:34:45 51°13.758 2°55.692 2.7 346 -1.2 102300 33
2009-12-14 07:34:51 51°13.767 2°55.683 2.4 347 -1.2 102300 32
2009-12-14 07:34:55 51°13.774 2°55.678 1.6 343 -1.2 102300 32
2009-12-14 07:35:00 51°13.782 2°55.671 2 341 -1.2 102300 34
2009-12-14 07:35:05 51°13.791 2°55.664 1.7 341 -1.2 102300 34
2009-12-14 07:35:09 51°13.798 2°55.659 2.1 344 -1.2 102300 31
2009-12-14 07:35:14 51°13.807 2°55.651 3.4 345 -1.2 102300 31
2009-12-14 07:35:19 51°13.816 2°55.644 2 343 -1.2 102300 30
2009-12-14 07:35:24 51°13.826 2°55.637 1.7 341 -1.2 102300 30
2009-12-14 07:35:29 51°13.835 2°55.629 1.9 342 -1.2 102300 31
2009-12-14 07:35:33 51°13.843 2°55.623 3.3 343 -1.2 102300 31
2009-12-14 07:35:38 51°13.853 2°55.616 2.7 342 -1.2 102300 30
2009-12-14 07:35:44 51°13.865 2°55.606 3.1 342 -1.2 102300 30
2009-12-14 07:35:49 51°13.875 2°55.598 3.9 342 -1.2 102300 30
2009-12-14 07:35:53 51°13.884 2°55.592 2.5 345 -1.2 102300 30
2009-12-14 07:35:58 51°13.894 2°55.584 2.1 341 -1.2 102300 36
2009-12-14 07:36:04 51°13.906 2°55.575 3.5 343 -1.2 102300 36
2009-12-14 07:36:09 51°13.917 2°55.567 3.5 345 -1.2 102300 35
2009-12-14 07:36:13 51°13.925 2°55.56 3.1 343 -1.2 102300 35
2009-12-14 07:36:19 51°13.938 2°55.551 2.4 343 -1.2 102300 33
2009-12-14 07:36:24 51°13.949 2°55.542 2.8 343 -1.2 102300 33
2009-12-14 07:36:29 51°13.959 2°55.534 2.3 345 -1.2 102300 35
2009-12-14 07:36:33 51°13.968 2°55.527 2.6 341 -1.2 102300 35
2009-12-14 07:36:39 51°13.981 2°55.517 3.5 342 -1.2 102300 31
2009-12-14 07:36:44 51°13.992 2°55.508 3.4 345 -1.2 102300 31
2009-12-14 07:36:49 51°14.003 2°55.499 3.1 347 -1.2 102290 35
2009-12-14 07:36:53 51°14.012 2°55.493 3.4 349 -1.2 102290 35
2009-12-14 07:36:59 51°14.026 2°55.483 3.1 346 -1.2 102300 32
2009-12-14 07:37:04 51°14.037 2°55.474 2.6 344 -1.2 102300 32
2009-12-14 07:37:08 51°14.046 2°55.466 4.1 337 -1.1 102290 31
2009-12-14 07:37:14 51°14.06 2°55.456 3.6 345 -1.1 102290 31
2009-12-14 07:37:18 51°14.069 2°55.449 4.5 340 -1.1 102300 32
2009-12-14 07:37:24 51°14.083 2°55.437 3.7 341 -1.1 102300 32
2009-12-14 07:37:29 51°14.095 2°55.428 3.3 343 -1.1 102300 32
2009-12-14 07:37:33 51°14.104 2°55.421 4 346 -1.1 102300 32
2009-12-14 07:37:39 51°14.118 2°55.41 3.8 344 -1.1 102300 35
2009-12-14 07:37:44 51°14.13 2°55.4 3.2 342 -1.1 102300 35
2009-12-14 07:37:48 51°14.139 2°55.392 3.1 339 -1.1 102290 31
2009-12-14 07:37:53 51°14.151 2°55.382 3.2 346 -1.1 102290 31
2009-12-14 07:37:59 51°14.164 2°55.369 2.6 342 -1.1 102290 31
2009-12-14 07:38:04 51°14.175 2°55.358 2.7 347 -1.1 102290 31
2009-12-14 07:38:09 51°14.186 2°55.347 3.4 339 -1.1 102300 34
2009-12-14 07:38:13 51°14.195 2°55.337 3.1 340 -1.1 102300 34
2009-12-14 07:38:18 51°14.206 2°55.324 2.7 348 -1.1 102300 31
2009-12-14 07:38:24 51°14.218 2°55.308 2.9 341 -1.1 102300 31
2009-12-14 07:38:29 51°14.228 2°55.294 2.3 344 -1.1 102300 34
2009-12-14 07:38:33 51°14.236 2°55.282 2.6 348 -1.1 102300 34
2009-12-14 07:38:38 51°14.246 2°55.268 2.2 346 -1.1 102300 35
2009-12-14 07:38:44 51°14.258 2°55.249 2.5 282 -1.1 102300 35
2009-12-14 07:38:49 51°14.268 2°55.233 2.3 341 -1.1 102300 31
2009-12-14 07:38:53 51°14.275 2°55.22 3.1 346 -1.1 102300 31
2009-12-14 07:38:59 51°14.285 2°55.199 2.9 351 -1.1 102300 32
2009-12-14 07:39:04 51°14.294 2°55.181 2 348 -1.1 102300 32
2009-12-14 07:39:08 51°14.301 2°55.167 2.6 338 -1.1 102300 36
2009-12-14 07:39:13 51°14.31 2°55.149 3.1 345 -1.1 102300 36
2009-12-14 07:39:19 51°14.32 2°55.127 1.5 353 -1.1 102290 33
2009-12-14 07:39:24 51°14.329 2°55.108 2.6 346 -1.1 102290 33
2009-12-14 07:39:29 51°14.337 2°55.089 2.2 344 -1.1 102300 31
2009-12-14 07:39:33 51°14.344 2°55.074 3 349 -1.1 102300 31
2009-12-14 07:39:39 51°14.355 2°55.051 2.9 353 -1.2 102290 31
2009-12-14 07:39:44 51°14.363 2°55.032 2.9 351 -1.2 102290 31
2009-12-14 07:39:49 51°14.372 2°55.011 3.1 348 -1.2 102300 31
2009-12-14 07:39:53 51°14.379 2°54.996 1.8 347 -1.2 102300 31
2009-12-14 07:39:59 51°14.391 2°54.975 3.2 349 -1.1 102300 35
2009-12-14 07:40:04 51°14.402 2°54.958 2.7 348 -1.1 102300 35
2009-12-14 07:40:09 51°14.412 2°54.941 3.5 347 -1.1 102300 35
2009-12-14 07:40:13 51°14.421 2°54.928 3.3 351 -1.1 102300 35
2009-12-14 07:40:19 51°14.435 2°54.909 4.1 353 -1.1 102290 34
2009-12-14 07:40:24 51°14.446 2°54.892 4.4 354 -1.1 102290 34
2009-12-14 07:40:29 51°14.457 2°54.876 4.2 355 -1.1 102300 31
2009-12-14 07:40:33 51°14.466 2°54.863 4.4 350 -1.1 102300 31
2009-12-14 07:40:38 51°14.479 2°54.848 5.3 351 -1 102290 36
2009-12-14 07:40:44 51°14.494 2°54.831 4.7 349 -1 102290 36
2009-12-14 07:40:49 51°14.507 2°54.818 5.6 354 -1 102300 35
2009-12-14 07:40:53 51°14.517 2°54.806 4.1 350 -1 102300 35
2009-12-14 07:40:58 51°14.529 2°54.792 4.6 350 -1 102290 36
2009-12-14 07:41:04 51°14.544 2°54.775 5.1 353 -1 102290 36
2009-12-14 07:41:09 51°14.557 2°54.761 4.7 355 -1 102290 33
2009-12-14 07:41:14 51°14.57 2°54.747 5.1 350 -1 102290 33
2009-12-14 07:41:18 51°14.58 2°54.735 4.8 350 -1 102290 32
2009-12-14 07:41:24 51°14.595 2°54.718 4.4 355 -1 102290 32
2009-12-14 07:41:29 51°14.608 2°54.704 4.7 354 -0.9 102300 34
2009-12-14 07:41:34 51°14.621 2°54.689 4.9 352 -0.9 102300 34
2009-12-14 07:41:38 51°14.631 2°54.677 4.9 354 -0.9 102290 32
2009-12-14 07:41:44 51°14.646 2°54.66 5.1 354 -0.9 102290 32
2009-12-14 07:41:49 51°14.659 2°54.646 4.8 353 -0.9 102290 33
2009-12-14 07:41:53 51°14.669 2°54.634 4.9 353 -0.9 102290 33
2009-12-14 07:41:59 51°14.685 2°54.618 4.9 355 -0.8 102290 35
2009-12-14 07:42:04 51°14.698 2°54.605 4.7 353 -0.8 102290 35
2009-12-14 07:42:09 51°14.711 2°54.591 4.6 356 -0.8 102290 32
2009-12-14 07:42:13 51°14.721 2°54.581 5 355 -0.8 102290 32
2009-12-14 07:42:19 51°14.737 2°54.565 5.5 352 -0.8 102300 33
2009-12-14 07:42:24 51°14.75 2°54.552 5.3 356 -0.8 102300 33
2009-12-14 07:42:29 51°14.764 2°54.539 3.7 357 -0.7 102290 32
2009-12-14 07:42:33 51°14.775 2°54.529 4.7 354 -0.7 102290 32
2009-12-14 07:42:39 51°14.79 2°54.514 5.2 353 -0.7 102300 35
2009-12-14 07:42:44 51°14.804 2°54.502 5.2 354 -0.7 102300 35
2009-12-14 07:42:49 51°14.817 2°54.49 5.7 352 -0.7 102300 31
2009-12-14 07:42:53 51°14.828 2°54.48 6.3 351 -0.7 102300 31
2009-12-14 07:42:58 51°14.842 2°54.468 6.5 359 -0.7 102300 32
2009-12-14 07:43:04 51°14.858 2°54.454 5.3 356 -0.7 102300 32
2009-12-14 07:43:09 51°14.872 2°54.442 5.2 355 -0.6 102290 33
2009-12-14 07:43:13 51°14.882 2°54.432 4.9 354 -0.6 102290 33
2009-12-14 07:43:19 51°14.898 2°54.418 5.2 352 -0.6 102290 32
2009-12-14 07:43:24 51°14.912 2°54.406 5.1 352 -0.6 102290 32
2009-12-14 07:43:29 51°14.925 2°54.394 5.4 353 -0.6 102300 35
2009-12-14 07:43:33 51°14.936 2°54.384 6.3 352 -0.6 102300 35
2009-12-14 07:43:39 51°14.952 2°54.37 6.5 354 -0.6 102300 32
2009-12-14 07:43:44 51°14.965 2°54.358 5.4 352 -0.6 102300 32
2009-12-14 07:43:48 51°14.976 2°54.348 6.3 355 -0.6 102290 32
2009-12-14 07:43:53 51°14.989 2°54.336 5.4 354 -0.6 102290 32
2009-12-14 07:43:59 51°15.005 2°54.321 5.5 357 -0.5 102300 32
2009-12-14 07:44:04 51°15.018 2°54.309 5.1 355 -0.5 102300 32
2009-12-14 07:44:08 51°15.028 2°54.299 5.8 356 -0.5 102300 32
2009-12-14 07:44:13 51°15.041 2°54.286 5.8 357 -0.5 102300 32
2009-12-14 07:44:18 51°15.054 2°54.274 5.8 358 -0.5 102290 33
2009-12-14 07:44:24 51°15.07 2°54.26 4.9 358 -0.5 102290 33
2009-12-14 07:44:29 51°15.083 2°54.248 4.6 357 -0.4 102300 34
2009-12-14 07:44:33 51°15.093 2°54.238 5.8 352 -0.4 102300 34
2009-12-14 07:44:39 51°15.109 2°54.223 5.3 353 -0.4 102290 32
2009-12-14 07:44:44 51°15.123 2°54.212 5.5 352 -0.4 102290 32
2009-12-14 07:44:48 51°15.133 2°54.202 5.3 354 -0.4 102300 32
2009-12-14 07:44:53 51°15.147 2°54.19 5.3 355 -0.4 102300 32
2009-12-14 07:44:59 51°15.162 2°54.176 5.3 357 -0.4 102300 34
2009-12-14 07:45:04 51°15.176 2°54.164 5.2 356 -0.4 102300 34
2009-12-14 07:45:09 51°15.189 2°54.152 5.7 353 -0.3 102300 33
2009-12-14 07:45:13 51°15.2 2°54.143 5.5 356 -0.3 102300 33
2009-12-14 07:45:19 51°15.216 2°54.128 6.5 355 -0.3 102300 35
2009-12-14 07:45:24 51°15.229 2°54.116 6.2 354 -0.3 102300 35
2009-12-14 07:45:29 51°15.242 2°54.104 6 354 -0.3 102300 31
2009-12-14 07:45:34 51°15.255 2°54.092 5.9 355 -0.3 102300 31
2009-12-14 07:45:38 51°15.266 2°54.082 6.3 355 -0.3 102290 34
2009-12-14 07:45:44 51°15.282 2°54.067 6 357 -0.3 102290 34
2009-12-14 07:45:49 51°15.295 2°54.056 5.4 357 -0.2 102290 35
2009-12-14 07:45:54 51°15.308 2°54.044 5.3 356 -0.2 102290 35
2009-12-14 07:45:58 51°15.319 2°54.034 5.4 358 -0.2 102300 32
2009-12-14 07:46:04 51°15.335 2°54.02 5.7 358 -0.2 102300 32
2009-12-14 07:46:09 51°15.348 2°54.008 5.7 2 -0.2 102290 35
2009-12-14 07:46:13 51°15.359 2°53.998 5 1 -0.2 102290 35
2009-12-14 07:46:19 51°15.375 2°53.984 5.1 360 -0.2 102290 32
2009-12-14 07:46:24 51°15.388 2°53.972 5.2 359 -0.2 102290 32
2009-12-14 07:46:28 51°15.399 2°53.962 4.4 3 -0.2 102290 34
2009-12-14 07:46:33 51°15.412 2°53.95 4.7 4 -0.2 102290 34
2009-12-14 07:46:39 51°15.428 2°53.936 5 359 -0.2 102290 34
2009-12-14 07:46:44 51°15.441 2°53.924 6 354 -0.2 102290 34
2009-12-14 07:46:49 51°15.455 2°53.912 6 356 -0.2 102290 35
2009-12-14 07:46:53 51°15.465 2°53.902 5.8 354 -0.2 102290 35
2009-12-14 07:46:58 51°15.478 2°53.889 5.8 354 -0.2 102290 32
2009-12-14 07:47:04 51°15.494 2°53.875 5.8 356 -0.2 102290 32
2009-12-14 07:47:08 51°15.505 2°53.865 5.4 358 -0.2 102290 33
2009-12-14 07:47:13 51°15.518 2°53.853 4.7 355 -0.2 102290 33
2009-12-14 07:47:19 51°15.534 2°53.839 5.4 357 -0.1 102290 35
2009-12-14 07:47:24 51°15.547 2°53.827 4.4 358 -0.1 102290 35
2009-12-14 07:47:29 51°15.561 2°53.815 5.2 358 -0.1 102290 32
2009-12-14 07:47:33 51°15.571 2°53.805 5.5 353 -0.1 102290 32
2009-12-14 07:47:39 51°15.588 2°53.791 6 353 -0.1 102290 32
2009-12-14 07:47:44 51°15.601 2°53.779 5.2 355 -0.1 102290 32
2009-12-14 07:47:49 51°15.614 2°53.767 5.8 353 -0.1 102290 33
2009-12-14 07:47:53 51°15.625 2°53.757 6.4 356 -0.1 102290 33
2009-12-14 07:47:59 51°15.641 2°53.743 6.2 355 -999 102290 35
2009-12-14 07:48:04 51°15.654 2°53.731 5.7 355 -999 102290 35
2009-12-14 07:48:08 51°15.665 2°53.722 5 354 -999 102290 31
2009-12-14 07:48:14 51°15.681 2°53.707 5.3 353 -999 102290 31
2009-12-14 07:48:18 51°15.691 2°53.698 4.9 353 -999 102290 35
2009-12-14 07:48:24 51°15.708 2°53.684 5.8 355 -999 102290 35
2009-12-14 07:48:29 51°15.721 2°53.672 5.5 357 -999 102290 35
2009-12-14 07:48:33 51°15.732 2°53.663 5.6 355 -999 102290 35
2009-12-14 07:48:39 51°15.748 2°53.649 5.4 355 -999 102290 33
2009-12-14 07:48:44 51°15.761 2°53.637 6.3 358 -999 102290 33
2009-12-14 07:48:48 51°15.772 2°53.628 5 3 -999 102290 35
2009-12-14 07:48:53 51°15.785 2°53.616 5.9 360 -999 102290 35
2009-12-14 07:48:59 51°15.802 2°53.602 4.7 3 -999 102290 31
2009-12-14 07:49:04 51°15.815 2°53.591 5.1 1 -999 102290 31
2009-12-14 07:49:09 51°15.828 2°53.579 5.4 360 0.1 102290 35
2009-12-14 07:49:13 51°15.839 2°53.57 4.8 4 0.1 102290 35
2009-12-14 07:49:18 51°15.853 2°53.559 4.8 1 0.1 102290 35
2009-12-14 07:49:24 51°15.869 2°53.544 4.6 5 0.1 102290 35
2009-12-14 07:49:29 51°15.882 2°53.533 5.5 4 0.1 102290 33
2009-12-14 07:49:33 51°15.893 2°53.523 5.5 3 0.1 102290 33
2009-12-14 07:49:38 51°15.906 2°53.511 5.9 -999 0.1 102290 34
2009-12-14 07:49:44 51°15.922 2°53.497 5.2 359 0.1 102290 34
2009-12-14 07:49:49 51°15.935 2°53.486 5.2 359 0.1 102290 34
2009-12-14 07:49:53 51°15.946 2°53.476 5.1 3 0.1 102290 34
2009-12-14 07:49:59 51°15.962 2°53.461 5.3 3 0.1 102290 35
2009-12-14 07:50:04 51°15.975 2°53.449 4.9 -999 0.1 102290 35
2009-12-14 07:50:09 51°15.988 2°53.438 5.2 353 0.1 102290 35
2009-12-14 07:50:13 51°15.999 2°53.428 5.5 356 0.1 102290 35
2009-12-14 07:50:18 51°16.012 2°53.416 5.4 359 0.1 102290 33
2009-12-14 07:50:24 51°16.029 2°53.401 6.2 353 0.1 102290 33
2009-12-14 07:50:29 51°16.042 2°53.389 5.9 355 0.2 102290 32
2009-12-14 07:50:33 51°16.053 2°53.379 5.9 355 0.2 102290 32
2009-12-14 07:50:38 51°16.066 2°53.367 5.7 360 0.2 102290 31
2009-12-14 07:50:44 51°16.082 2°53.352 6.2 1 0.2 102290 31
2009-12-14 07:50:48 51°16.092 2°53.343 6.5 359 0.2 102290 32
2009-12-14 07:50:53 51°16.106 2°53.331 6.1 360 0.2 102290 32
2009-12-14 07:50:58 51°16.119 2°53.319 5.9 360 0.2 102290 32
2009-12-14 07:51:04 51°16.135 2°53.304 5 4 0.2 102290 32
2009-12-14 07:51:08 51°16.146 2°53.295 4.8 359 0.3 102280 34
2009-12-14 07:51:13 51°16.159 2°53.283 5 -999 0.3 102280 34
2009-12-14 07:51:19 51°16.175 2°53.268 6.2 359 0.3 102290 35
2009-12-14 07:51:24 51°16.188 2°53.257 5.6 359 0.3 102290 35
2009-12-14 07:51:29 51°16.202 2°53.245 6.2 352 0.3 102290 33
2009-12-14 07:51:33 51°16.212 2°53.235 7.1 358 0.3 102290 33
2009-12-14 07:51:38 51°16.226 2°53.224 6.8 358 0.3 102290 31
2009-12-14 07:51:44 51°16.242 2°53.21 6.8 358 0.3 102290 31
2009-12-14 07:51:49 51°16.255 2°53.198 6.7 356 0.3 102290 34
2009-12-14 07:51:53 51°16.266 2°53.189 5.9 358 0.3 102290 34
2009-12-14 07:51:58 51°16.279 2°53.177 5.4 358 0.4 102290 34
2009-12-14 07:52:04 51°16.295 2°53.163 5.3 2 0.4 102290 34
2009-12-14 07:52:09 51°16.309 2°53.152 6.1 356 0.3 102280 31
2009-12-14 07:52:13 51°16.32 2°53.143 5.8 355 0.3 102280 31
2009-12-14 07:52:18 51°16.333 2°53.131 5.6 356 0.3 102290 34
2009-12-14 07:52:24 51°16.349 2°53.117 6.3 356 0.3 102290 34
2009-12-14 07:52:29 51°16.362 2°53.106 6.8 352 0.3 102290 34
2009-12-14 07:52:34 51°16.376 2°53.094 6.9 355 0.3 102290 34
2009-12-14 07:52:38 51°16.387 2°53.085 7.4 356 0.3 102290 31
2009-12-14 07:52:44 51°16.403 2°53.071 6.9 355 0.3 102290 31
2009-12-14 07:52:48 51°16.413 2°53.061 6.9 355 0.3 102290 35
2009-12-14 07:52:53 51°16.427 2°53.05 6.3 356 0.3 102290 35
2009-12-14 07:52:59 51°16.443 2°53.036 6.5 356 0.3 102290 32
2009-12-14 07:53:04 51°16.456 2°53.025 6.3 357 0.3 102290 32
2009-12-14 07:53:09 51°16.47 2°53.013 6 357 0.3 102290 35
2009-12-14 07:53:13 51°16.48 2°53.004 6.2 359 0.3 102290 35
2009-12-14 07:53:18 51°16.494 2°52.993 6.2 -999 0.3 102290 31
2009-12-14 07:53:24 51°16.51 2°52.98 6.3 1 0.3 102290 31
2009-12-14 07:53:29 51°16.524 2°52.968 6.3 357 0.3 102290 34
2009-12-14 07:53:33 51°16.534 2°52.959 6.3 353 0.3 102290 34
2009-12-14 07:53:39 51°16.551 2°52.946 5.7 354 0.3 102290 32
2009-12-14 07:53:44 51°16.564 2°52.934 7.4 354 0.3 102290 32
2009-12-14 07:53:48 51°16.575 2°52.924 7.8 1 0.3 102290 31
2009-12-14 07:53:53 51°16.588 2°52.913 7.7 360 0.3 102290 31
2009-12-14 07:53:59 51°16.604 2°52.899 7.5 359 0.3 102290 31
2009-12-14 07:54:04 51°16.617 2°52.887 6.7 360 0.3 102290 31
2009-12-14 07:54:09 51°16.63 2°52.875 6.4 359 0.4 102290 31
2009-12-14 07:54:13 51°16.641 2°52.866 6.7 1 0.4 102290 31
2009-12-14 07:54:18 51°16.654 2°52.855 6.8 359 0.4 102280 32
2009-12-14 07:54:24 51°16.67 2°52.842 6.5 358 0.4 102280 32
2009-12-14 07:54:29 51°16.683 2°52.83 6 357 0.4 102280 35
2009-12-14 07:54:33 51°16.694 2°52.821 6.5 357 0.4 102280 35
2009-12-14 07:54:38 51°16.707 2°52.81 5.7 356 0.4 102290 31
2009-12-14 07:54:44 51°16.723 2°52.796 5.4 353 0.4 102290 31
2009-12-14 07:54:49 51°16.736 2°52.785 5.5 351 0.4 102290 33
2009-12-14 07:54:54 51°16.749 2°52.773 5.6 357 0.4 102290 33
2009-12-14 07:54:58 51°16.76 2°52.765 5.4 357 0.4 102280 32
2009-12-14 07:55:04 51°16.775 2°52.751 5.3 354 0.4 102280 32
2009-12-14 07:55:08 51°16.786 2°52.742 5.3 359 0.4 102290 34
2009-12-14 07:55:14 51°16.801 2°52.728 6.1 359 0.4 102290 34
2009-12-14 07:55:19 51°16.814 2°52.717 5.6 359 0.4 102290 31
2009-12-14 07:55:24 51°16.827 2°52.706 5.6 359 0.4 102290 31
2009-12-14 07:55:28 51°16.838 2°52.697 6.9 354 0.4 102290 35
2009-12-14 07:55:33 51°16.851 2°52.686 6.4 355 0.4 102290 35
2009-12-14 07:55:39 51°16.866 2°52.673 7.5 356 0.4 102290 34
2009-12-14 07:55:44 51°16.879 2°52.662 7.1 358 0.4 102290 34
2009-12-14 07:55:49 51°16.892 2°52.65 7.7 355 0.4 102290 35
2009-12-14 07:55:53 51°16.903 2°52.642 7.1 357 0.4 102290 35
2009-12-14 07:55:59 51°16.919 2°52.629 7.6 356 0.4 102290 34
2009-12-14 07:56:04 51°16.932 2°52.617 6.7 358 0.4 102290 34
2009-12-14 07:56:08 51°16.943 2°52.609 7.3 358 0.4 102280 33
2009-12-14 07:56:13 51°16.955 2°52.597 6.5 359 0.4 102280 33
2009-12-14 07:56:18 51°16.968 2°52.586 7.1 359 0.4 102290 34
2009-12-14 07:56:24 51°16.984 2°52.572 6.6 -999 0.4 102290 34
2009-12-14 07:56:28 51°16.994 2°52.563 6.4 360 0.5 102280 33
2009-12-14 07:56:34 51°17.01 2°52.55 6.1 3 0.5 102280 33
2009-12-14 07:56:38 51°17.02 2°52.542 7 359 0.4 102280 33
2009-12-14 07:56:44 51°17.036 2°52.528 6.2 2 0.4 102280 33
2009-12-14 07:56:49 51°17.049 2°52.517 6.1 2 0.5 102300 34
2009-12-14 07:56:53 51°17.059 2°52.508 5.6 2 0.5 102300 34
2009-12-14 07:56:58 51°17.072 2°52.496 5.4 3 0.4 102290 31
2009-12-14 07:57:04 51°17.088 2°52.483 5.9 2 0.4 102290 31
2009-12-14 07:57:09 51°17.101 2°52.472 5.3 3 0.4 102290 32
2009-12-14 07:57:14 51°17.114 2°52.461 5.4 357 0.4 102290 32
2009-12-14 07:57:18 51°17.124 2°52.452 5.6 1 0.4 102290 31
2009-12-14 07:57:24 51°17.14 2°52.438 4.4 4 0.4 102290 31
2009-12-14 07:57:28 51°17.151 2°52.429 5.7 2 0.4 102290 31
2009-12-14 07:57:33 51°17.163 2°52.418 6.2 3 0.4 102290 31
2009-12-14 07:57:39 51°17.179 2°52.404 5.9 5 0.5 102290 32
2009-12-14 07:57:44 51°17.192 2°52.393 6.6 2 0.5 102290 32
2009-12-14 07:57:48 51°17.202 2°52.383 6.4 359 0.5 102290 32
2009-12-14 07:57:53 51°17.215 2°52.372 6.5 358 0.5 102290 32
2009-12-14 07:57:59 51°17.231 2°52.358 6.2 -999 0.5 102290 31
2009-12-14 07:58:04 51°17.244 2°52.347 5.9 3 0.5 102290 31
2009-12-14 07:58:09 51°17.257 2°52.335 6.8 -999 0.5 102290 32
2009-12-14 07:58:13 51°17.267 2°52.326 6 5 0.5 102290 32
2009-12-14 07:58:19 51°17.283 2°52.313 7.1 2 0.5 102290 35
2009-12-14 07:58:24 51°17.296 2°52.301 6.7 3 0.5 102290 35
2009-12-14 07:58:28 51°17.306 2°52.292 6.1 5 0.5 102290 33
2009-12-14 07:58:33 51°17.319 2°52.281 6 2 0.5 102290 33
2009-12-14 07:58:38 51°17.332 2°52.27 6.2 -999 0.5 102290 35
2009-12-14 07:58:44 51°17.348 2°52.256 5.3 1 0.5 102290 35
2009-12-14 07:58:48 51°17.358 2°52.247 5.3 3 0.5 102290 34
2009-12-14 07:58:53 51°17.371 2°52.236 5.5 4 0.5 102290 34
2009-12-14 07:58:58 51°17.384 2°52.224 5 4 0.5 102290 35
2009-12-14 07:59:04 51°17.4 2°52.211 5.5 8 0.5 102290 35
2009-12-14 07:59:09 51°17.413 2°52.199 6.4 4 0.5 102290 35
2009-12-14 07:59:13 51°17.424 2°52.19 5.8 5 0.5 102290 35
2009-12-14 07:59:19 51°17.439 2°52.176 5.3 6 0.5 102290 34
2009-12-14 07:59:24 51°17.453 2°52.165 5.2 7 0.5 102290 34
2009-12-14 07:59:28 51°17.463 2°52.156 5.2 1 0.5 102290 31
2009-12-14 07:59:33 51°17.476 2°52.145 6.2 357 0.5 102290 31
2009-12-14 07:59:39 51°17.492 2°52.132 6.8 -999 0.5 102290 35
2009-12-14 07:59:44 51°17.505 2°52.121 6.4 357 0.5 102290 35
2009-12-14 07:59:48 51°17.516 2°52.113 6.5 360 0.6 102290 35
2009-12-14 07:59:53 51°17.529 2°52.104 6.3 358 0.6 102290 35
2009-12-14 07:59:59 51°17.546 2°52.094 6.3 356 0.6 102300 32
2009-12-14 08:00:04 51°17.559 2°52.085 6.8 356 0.6 102300 32
2009-12-14 08:00:08 51°17.57 2°52.079 7 355 0.6 102290 33
2009-12-14 08:00:13 51°17.584 2°52.072 7.2 358 0.6 102290 33
2009-12-14 08:00:19 51°17.601 2°52.063 7 355 0.6 102280 31
2009-12-14 08:00:24 51°17.615 2°52.058 7.8 354 0.6 102280 31
2009-12-14 08:00:28 51°17.626 2°52.054 7.7 356 0.6 102290 32
2009-12-14 08:00:33 51°17.64 2°52.05 7.9 354 0.6 102290 32
2009-12-14 08:00:38 51°17.654 2°52.045 7.4 354 0.6 102290 32
2009-12-14 08:00:44 51°17.671 2°52.041 7.5 351 0.6 102290 32
2009-12-14 08:00:49 51°17.685 2°52.039 7.4 353 0.6 102290 32
2009-12-14 08:00:53 51°17.697 2°52.036 6.7 353 0.6 102290 32
2009-12-14 08:00:58 51°17.711 2°52.035 6.7 350 0.6 102280 35
2009-12-14 08:01:04 51°17.729 2°52.032 7.9 349 0.6 102280 35
2009-12-14 08:01:09 51°17.743 2°52.029 7.4 349 0.6 102290 34
2009-12-14 08:01:14 51°17.758 2°52.027 8 349 0.6 102290 34
2009-12-14 08:01:18 51°17.769 2°52.025 7.6 349 0.6 102290 35
2009-12-14 08:01:24 51°17.787 2°52.022 6.7 350 0.6 102290 35
2009-12-14 08:01:28 51°17.798 2°52.02 6.5 350 0.6 102290 33
2009-12-14 08:01:33 51°17.813 2°52.019 7.1 352 0.6 102290 33
2009-12-14 08:01:38 51°17.827 2°52.017 6.5 351 0.6 102280 34
2009-12-14 08:01:44 51°17.844 2°52.014 6.5 352 0.6 102280 34
2009-12-14 08:01:48 51°17.856 2°52.013 7 353 0.5 102280 31
2009-12-14 08:01:54 51°17.873 2°52.01 7.6 355 0.5 102280 31
2009-12-14 08:01:58 51°17.885 2°52.009 7.1 354 0.5 102280 33
2009-12-14 08:02:04 51°17.902 2°52.007 7.1 356 0.5 102280 33
2009-12-14 08:02:08 51°17.914 2°52.005 6.7 357 0.5 102280 31
2009-12-14 08:02:13 51°17.928 2°52.003 6.6 355 0.5 102280 31
2009-12-14 08:02:19 51°17.946 2°52 6.7 353 0.5 102280 32
2009-12-14 08:02:24 51°17.96 2°51.998 7.4 354 0.5 102280 32
2009-12-14 08:02:28 51°17.972 2°51.995 6.9 356 0.5 102280 32
2009-12-14 08:02:33 51°17.986 2°51.993 7.1 356 0.5 102280 32
2009-12-14 08:02:39 51°18.004 2°51.99 7.5 358 0.5 102280 34
2009-12-14 08:02:44 51°18.018 2°51.987 8.2 357 0.5 102280 34
2009-12-14 08:02:48 51°18.03 2°51.986 9 354 0.5 102290 34
2009-12-14 08:02:53 51°18.044 2°51.983 7.4 354 0.5 102290 34
2009-12-14 08:02:58 51°18.058 2°51.981 8.1 353 0.6 102280 33
2009-12-14 08:03:04 51°18.076 2°51.978 7 353 0.6 102280 33
2009-12-14 08:03:09 51°18.09 2°51.975 7.7 352 0.6 102280 32
2009-12-14 08:03:13 51°18.102 2°51.974 7 353 0.6 102280 32
2009-12-14 08:03:18 51°18.117 2°51.971 6.8 351 0.6 102280 32
2009-12-14 08:03:24 51°18.134 2°51.968 6.8 353 0.6 102280 32
2009-12-14 08:03:29 51°18.149 2°51.965 6.6 354 0.6 102280 33
2009-12-14 08:03:34 51°18.163 2°51.963 6.8 355 0.6 102280 33
2009-12-14 08:03:38 51°18.175 2°51.961 6.1 355 0.5 102280 32
2009-12-14 08:03:44 51°18.192 2°51.957 6.6 357 0.5 102280 32
2009-12-14 08:03:48 51°18.204 2°51.954 6 357 0.5 102280 32
2009-12-14 08:03:53 51°18.218 2°51.952 6.4 356 0.5 102280 32
2009-12-14 08:03:58 51°18.233 2°51.949 6.6 357 0.5 102280 34
2009-12-14 08:04:04 51°18.251 2°51.946 7.3 359 0.5 102280 34
2009-12-14 08:04:08 51°18.262 2°51.944 7.1 358 0.5 102280 30
2009-12-14 08:04:14 51°18.28 2°51.94 7 355 0.5 102280 30
2009-12-14 08:04:18 51°18.291 2°51.938 6 1 0.5 102280 33
2009-12-14 08:04:24 51°18.309 2°51.935 6 358 0.5 102280 33
2009-12-14 08:04:28 51°18.321 2°51.932 6.2 360 0.5 102280 34
2009-12-14 08:04:33 51°18.335 2°51.93 6.3 354 0.5 102280 34
2009-12-14 08:04:39 51°18.353 2°51.927 6.7 355 0.5 102280 34
2009-12-14 08:04:44 51°18.367 2°51.924 7.5 355 0.5 102280 34
2009-12-14 08:04:48 51°18.379 2°51.921 7.4 352 0.5 102290 32
2009-12-14 08:04:53 51°18.394 2°51.918 7.1 354 0.5 102290 32
2009-12-14 08:04:57 51°18.405 2°51.916 6.6 353 0.5 102280 33
2009-12-14 08:05:04 51°18.426 2°51.912 6.5 356 0.5 102280 33
2009-12-14 08:05:09 51°18.441 2°51.908 5.8 359 0.6 102280 32
2009-12-14 08:05:13 51°18.452 2°51.906 6.1 359 0.6 102280 32
2009-12-14 08:05:18 51°18.467 2°51.903 6.3 358 0.6 102280 32
2009-12-14 08:05:24 51°18.485 2°51.899 5.7 359 0.6 102280 32
2009-12-14 08:05:28 51°18.497 2°51.896 5.4 -999 0.6 102280 35
2009-12-14 08:05:33 51°18.511 2°51.893 6 355 0.6 102280 35
2009-12-14 08:05:38 51°18.526 2°51.89 6.3 357 0.6 102290 33
2009-12-14 08:05:44 51°18.544 2°51.886 5.9 358 0.6 102290 33
2009-12-14 08:05:48 51°18.555 2°51.883 5.7 358 0.6 102280 35
2009-12-14 08:05:53 51°18.57 2°51.879 7 360 0.6 102280 35
2009-12-14 08:05:58 51°18.585 2°51.876 6.4 360 0.6 102280 33
2009-12-14 08:06:04 51°18.603 2°51.871 6.9 -999 0.6 102280 33
2009-12-14 08:06:09 51°18.617 2°51.868 6.3 1 0.6 102280 33
2009-12-14 08:06:13 51°18.629 2°51.865 6.3 359 0.6 102280 33
2009-12-14 08:06:18 51°18.644 2°51.861 7.1 360 0.6 102280 35
2009-12-14 08:06:24 51°18.661 2°51.857 7.3 358 0.6 102280 35
2009-12-14 08:06:29 51°18.676 2°51.854 7 355 0.6 102280 32
2009-12-14 08:06:33 51°18.687 2°51.851 7.5 354 0.6 102280 32
2009-12-14 08:06:38 51°18.702 2°51.847 7.3 355 0.6 102280 34
2009-12-14 08:06:44 51°18.719 2°51.842 7.2 355 0.6 102280 34
2009-12-14 08:06:49 51°18.734 2°51.839 6.9 356 0.6 102280 34
2009-12-14 08:06:53 51°18.745 2°51.836 6.8 357 0.6 102280 34
2009-12-14 08:06:58 51°18.76 2°51.832 7 356 0.7 102280 34
2009-12-14 08:07:04 51°18.777 2°51.828 6.3 359 0.7 102280 34
2009-12-14 08:07:08 51°18.789 2°51.826 7.3 358 0.6 102280 32
2009-12-14 08:07:13 51°18.804 2°51.823 7.1 357 0.6 102280 32
2009-12-14 08:07:17 51°18.815 2°51.821 6.2 357 0.6 102280 35
2009-12-14 08:07:24 51°18.835 2°51.816 5.9 356 0.6 102280 35
2009-12-14 08:07:29 51°18.85 2°51.813 6 355 0.6 102280 32
2009-12-14 08:07:33 51°18.862 2°51.81 7.2 354 0.6 102280 32
2009-12-14 08:07:38 51°18.876 2°51.807 7.1 358 0.6 102280 35
2009-12-14 08:07:44 51°18.894 2°51.804 6.7 359 0.6 102280 35
2009-12-14 08:07:49 51°18.908 2°51.801 6.2 357 0.6 102280 34
2009-12-14 08:07:53 51°18.92 2°51.799 6.2 360 0.6 102280 34
2009-12-14 08:07:58 51°18.934 2°51.795 6.1 360 0.7 102280 33
2009-12-14 08:08:04 51°18.951 2°51.791 5.5 1 0.7 102280 33
2009-12-14 08:08:09 51°18.966 2°51.787 6.1 359 0.7 102280 32
2009-12-14 08:08:14 51°18.98 2°51.784 5.9 359 0.7 102280 32
2009-12-14 08:08:19 51°18.995 2°51.78 6.4 359 0.7 102280 35
2009-12-14 08:08:24 51°19.01 2°51.777 7.3 1 0.7 102280 35
2009-12-14 08:08:28 51°19.021 2°51.774 7.1 1 0.7 102290 34
2009-12-14 08:08:33 51°19.036 2°51.77 6.1 2 0.7 102290 34
2009-12-14 08:08:39 51°19.053 2°51.766 6.6 1 0.7 102290 32
2009-12-14 08:08:44 51°19.068 2°51.763 7.4 357 0.7 102290 32
2009-12-14 08:08:48 51°19.079 2°51.76 8.3 359 0.7 102280 35
2009-12-14 08:08:53 51°19.093 2°51.756 7.6 358 0.7 102280 35
2009-12-14 08:08:59 51°19.111 2°51.752 7.3 359 0.7 102280 34
2009-12-14 08:09:04 51°19.125 2°51.749 6.5 359 0.7 102280 34
2009-12-14 08:09:08 51°19.137 2°51.746 6.4 2 0.7 102280 34
2009-12-14 08:09:13 51°19.152 2°51.743 7 355 0.7 102280 34
2009-12-14 08:09:18 51°19.166 2°51.74 7 359 0.7 102280 34
2009-12-14 08:09:24 51°19.183 2°51.735 7.8 359 0.7 102280 34
2009-12-14 08:09:29 51°19.198 2°51.732 7.4 -999 0.7 102280 31
2009-12-14 08:09:33 51°19.209 2°51.73 6.8 358 0.7 102280 31
2009-12-14 08:09:38 51°19.224 2°51.727 5.3 355 0.7 102280 32
2009-12-14 08:09:44 51°19.241 2°51.724 4.8 359 0.7 102280 32
2009-12-14 08:09:49 51°19.256 2°51.721 5.3 358 0.7 102280 35
2009-12-14 08:09:53 51°19.268 2°51.719 5.9 355 0.7 102280 35
2009-12-14 08:09:58 51°19.282 2°51.716 5.5 354 0.7 102270 35
2009-12-14 08:10:04 51°19.299 2°51.712 4.5 5 0.7 102270 35
2009-12-14 08:10:09 51°19.314 2°51.709 4.8 358 0.7 102280 32
2009-12-14 08:10:14 51°19.328 2°51.706 4.3 3 0.7 102280 32
2009-12-14 08:10:18 51°19.34 2°51.704 6.2 2 0.7 102280 32
2009-12-14 08:10:24 51°19.358 2°51.699 4.5 359 0.7 102280 32
2009-12-14 08:10:29 51°19.372 2°51.696 4.7 357 0.8 102280 36
2009-12-14 08:10:34 51°19.386 2°51.692 4.8 -999 0.8 102280 36
2009-12-14 08:10:38 51°19.398 2°51.689 4.9 1 0.9 102280 34
2009-12-14 08:10:44 51°19.415 2°51.684 7.3 2 0.9 102280 34
2009-12-14 08:10:48 51°19.427 2°51.681 4.9 2 0.8 102280 36
2009-12-14 08:10:53 51°19.441 2°51.678 5.1 -999 0.8 102280 36
2009-12-14 08:10:58 51°19.456 2°51.674 4.8 1 0.9 102280 36
2009-12-14 08:11:04 51°19.473 2°51.669 4.1 358 0.9 102280 36
2009-12-14 08:11:09 51°19.488 2°51.666 4.3 357 0.9 102280 32
2009-12-14 08:11:14 51°19.502 2°51.662 5.6 357 0.9 102280 32
2009-12-14 08:11:18 51°19.514 2°51.659 4.6 358 0.9 102270 33
2009-12-14 08:11:24 51°19.531 2°51.655 4.6 1 0.9 102270 33
2009-12-14 08:11:29 51°19.546 2°51.651 4.9 360 0.9 102280 36
2009-12-14 08:11:33 51°19.557 2°51.648 4.8 358 0.9 102280 36
2009-12-14 08:11:39 51°19.575 2°51.644 4.3 358 0.8 102280 36
2009-12-14 08:11:44 51°19.589 2°51.641 4.7 1 0.8 102280 36
2009-12-14 08:11:48 51°19.601 2°51.638 4.8 356 0.8 102280 32
2009-12-14 08:11:53 51°19.616 2°51.634 5.2 359 0.8 102280 32
2009-12-14 08:11:59 51°19.633 2°51.629 3.5 -999 0.8 102280 35
2009-12-14 08:12:04 51°19.647 2°51.626 5 1 0.8 102280 35
2009-12-14 08:12:09 51°19.662 2°51.622 3.7 360 0.8 102280 35
2009-12-14 08:12:13 51°19.673 2°51.619 3.7 1 0.8 102280 35
2009-12-14 08:12:18 51°19.688 2°51.615 4.6 1 0.8 102270 32
2009-12-14 08:12:24 51°19.705 2°51.611 4.5 1 0.8 102270 32
2009-12-14 08:12:29 51°19.72 2°51.607 5 -999 0.8 102280 36
2009-12-14 08:12:33 51°19.731 2°51.604 4.8 359 0.8 102280 36
2009-12-14 08:12:38 51°19.746 2°51.601 6.1 354 0.8 102280 32
2009-12-14 08:12:44 51°19.763 2°51.598 5.5 357 0.8 102280 32
2009-12-14 08:12:48 51°19.775 2°51.596 5.1 355 0.8 102280 35
2009-12-14 08:12:54 51°19.792 2°51.592 7 356 0.8 102280 35
2009-12-14 08:12:58 51°19.804 2°51.589 7.2 359 0.8 102270 33
2009-12-14 08:13:04 51°19.822 2°51.585 5.9 358 0.8 102270 33
2009-12-14 08:13:08 51°19.833 2°51.583 6 358 0.8 102280 36
2009-12-14 08:13:13 51°19.848 2°51.58 5.5 1 0.8 102280 36
2009-12-14 08:13:19 51°19.866 2°51.577 5.3 359 0.8 102280 32
2009-12-14 08:13:24 51°19.88 2°51.574 5.4 358 0.8 102280 32
2009-12-14 08:13:28 51°19.892 2°51.572 5.7 2 0.8 102270 32
2009-12-14 08:13:33 51°19.907 2°51.57 4.5 359 0.8 102270 32
2009-12-14 08:13:39 51°19.925 2°51.566 5.5 359 0.8 102280 34
2009-12-14 08:13:44 51°19.939 2°51.564 4.1 356 0.8 102280 34
2009-12-14 08:13:49 51°19.954 2°51.561 4.7 358 0.8 102270 35
2009-12-14 08:13:53 51°19.966 2°51.559 5 356 0.8 102270 35
2009-12-14 08:13:58 51°19.981 2°51.556 4.4 358 0.8 102270 32
2009-12-14 08:14:04 51°19.999 2°51.552 5.4 2 0.8 102270 32
2009-12-14 08:14:08 51°20.01 2°51.55 4.5 3 0.8 102280 32
2009-12-14 08:14:13 51°20.025 2°51.547 5.9 355 0.8 102280 32
2009-12-14 08:14:18 51°20.04 2°51.543 5.2 356 0.8 102280 36
2009-12-14 08:14:24 51°20.058 2°51.539 6.1 357 0.8 102280 36
2009-12-14 08:14:28 51°20.069 2°51.536 6.2 358 0.8 102270 36
2009-12-14 08:14:34 51°20.087 2°51.533 5.8 -999 0.8 102270 36
2009-12-14 08:14:38 51°20.099 2°51.53 5.2 359 0.8 102280 32
2009-12-14 08:14:44 51°20.116 2°51.526 4.3 357 0.8 102280 32
2009-12-14 08:14:49 51°20.13 2°51.523 5.1 1 0.8 102270 35
2009-12-14 08:14:53 51°20.142 2°51.52 4.9 359 0.8 102270 35
2009-12-14 08:14:58 51°20.157 2°51.517 5.7 359 0.8 102260 34
2009-12-14 08:15:04 51°20.175 2°51.514 4.9 358 0.8 102260 34
2009-12-14 08:15:09 51°20.189 2°51.51 4.7 358 0.8 102270 32
2009-12-14 08:15:14 51°20.204 2°51.507 5 359 0.8 102270 32
2009-12-14 08:15:18 51°20.215 2°51.505 3.8 356 0.8 102270 34
2009-12-14 08:15:24 51°20.233 2°51.501 4.7 357 0.8 102270 34
2009-12-14 08:15:28 51°20.245 2°51.499 4.4 358 0.8 102270 36
2009-12-14 08:15:33 51°20.259 2°51.495 5.5 358 0.8 102270 36
2009-12-14 08:15:39 51°20.277 2°51.491 5.1 359 0.8 102270 34
2009-12-14 08:15:44 51°20.292 2°51.488 5 2 0.8 102270 34
2009-12-14 08:15:48 51°20.303 2°51.486 4.8 1 0.8 102270 35
2009-12-14 08:15:53 51°20.318 2°51.482 5.1 359 0.8 102270 35
2009-12-14 08:15:59 51°20.336 2°51.478 5.7 1 0.8 102270 35
2009-12-14 08:16:04 51°20.351 2°51.474 6.7 356 0.8 102270 35
2009-12-14 08:16:09 51°20.365 2°51.471 4.7 356 0.8 102270 34
2009-12-14 08:16:13 51°20.377 2°51.468 4.9 354 0.8 102270 34
2009-12-14 08:16:18 51°20.392 2°51.465 4.7 355 0.8 102270 35
2009-12-14 08:16:24 51°20.41 2°51.461 4.7 358 0.8 102270 35
2009-12-14 08:16:28 51°20.422 2°51.458 4.4 355 0.8 102270 33
2009-12-14 08:16:33 51°20.436 2°51.454 4.5 355 0.8 102270 33
2009-12-14 08:16:38 51°20.451 2°51.451 4.9 2 0.8 102270 34
2009-12-14 08:16:44 51°20.469 2°51.447 5.4 2 0.8 102270 34
2009-12-14 08:16:48 51°20.481 2°51.443 5.5 359 0.8 102270 32
2009-12-14 08:16:53 51°20.495 2°51.439 6.6 8 0.8 102270 32
2009-12-14 08:16:58 51°20.509 2°51.433 5.6 8 0.9 102270 32
2009-12-14 08:17:04 51°20.525 2°51.421 4.9 5 0.9 102270 32
2009-12-14 08:17:08 51°20.535 2°51.412 3.7 7 0.9 102260 35
2009-12-14 08:17:13 51°20.549 2°51.403 4.4 4 0.9 102260 35
2009-12-14 08:17:19 51°20.565 2°51.389 3.9 6 0.9 102260 36
2009-12-14 08:17:24 51°20.578 2°51.379 4.4 5 0.9 102260 36
2009-12-14 08:17:28 51°20.589 2°51.371 3.9 8 0.9 102260 32
2009-12-14 08:17:33 51°20.602 2°51.359 4.7 5 0.9 102260 32
2009-12-14 08:17:39 51°20.618 2°51.345 4.3 10 0.8 102270 36
2009-12-14 08:17:44 51°20.631 2°51.333 3.9 6 0.8 102270 36
2009-12-14 08:17:48 51°20.641 2°51.324 3.8 6 0.8 102270 36
2009-12-14 08:17:53 51°20.655 2°51.311 3.7 -999 0.8 102270 36
2009-12-14 08:17:59 51°20.67 2°51.296 3.1 7 0.9 102270 32
2009-12-14 08:18:04 51°20.683 2°51.284 3.4 8 0.9 102270 32
2009-12-14 08:18:08 51°20.694 2°51.273 4 6 0.9 102270 35
2009-12-14 08:18:13 51°20.707 2°51.261 3.1 10 0.9 102270 35
2009-12-14 08:18:19 51°20.723 2°51.247 3.2 5 0.9 102270 34
2009-12-14 08:18:24 51°20.736 2°51.235 3.2 6 0.9 102270 34
2009-12-14 08:18:28 51°20.747 2°51.225 2.9 2 0.9 102270 36
2009-12-14 08:18:33 51°20.76 2°51.214 3.1 7 0.9 102270 36
2009-12-14 08:18:38 51°20.774 2°51.202 3.4 5 0.9 102280 32
2009-12-14 08:18:44 51°20.79 2°51.188 3.5 6 0.9 102280 32
2009-12-14 08:18:49 51°20.803 2°51.175 3.5 359 0.9 102270 37
2009-12-14 08:18:53 51°20.814 2°51.165 3.2 1 0.9 102270 37
2009-12-14 08:18:58 51°20.827 2°51.154 3.2 1 0.9 102270 32
2009-12-14 08:19:04 51°20.844 2°51.139 4.2 357 0.9 102270 32
2009-12-14 08:19:09 51°20.857 2°51.127 4.1 356 0.9 102260 34
2009-12-14 08:19:14 51°20.871 2°51.115 3.9 357 0.9 102260 34
2009-12-14 08:19:18 51°20.881 2°51.105 3.6 355 0.9 102270 36
2009-12-14 08:19:24 51°20.897 2°51.09 4 356 0.9 102270 36
2009-12-14 08:19:28 51°20.908 2°51.08 3.5 1 1 102260 32
2009-12-14 08:19:33 51°20.921 2°51.067 2.9 -999 1 102260 32
2009-12-14 08:19:38 51°20.934 2°51.055 2.6 -999 0.9 102270 32
2009-12-14 08:19:44 51°20.95 2°51.039 3.1 358 0.9 102270 32
2009-12-14 08:19:48 51°20.961 2°51.029 3 -999 0.9 102270 32
2009-12-14 08:19:54 51°20.977 2°51.014 1.6 359 0.9 102270 32
2009-12-14 08:19:58 51°20.988 2°51.004 4.3 360 0.9 102270 36
2009-12-14 08:20:04 51°21.003 2°50.989 3.7 358 0.9 102270 36
2009-12-14 08:20:08 51°21.014 2°50.979 3.3 356 0.9 102270 34
2009-12-14 08:20:13 51°21.028 2°50.968 4.4 2 0.9 102270 34
2009-12-14 08:20:19 51°21.044 2°50.955 3.8 359 0.9 102270 32
2009-12-14 08:20:24 51°21.058 2°50.945 3.7 4 0.9 102270 32
2009-12-14 08:20:28 51°21.069 2°50.937 3.9 358 0.9 102270 36
2009-12-14 08:20:33 51°21.083 2°50.926 4.3 3 0.9 102270 36
2009-12-14 08:20:39 51°21.1 2°50.914 3 358 0.9 102270 36
2009-12-14 08:20:44 51°21.113 2°50.904 3.5 1 0.9 102270 36
2009-12-14 08:20:48 51°21.125 2°50.897 4 359 0.9 102260 34
2009-12-14 08:20:53 51°21.139 2°50.887 4.8 356 0.9 102260 34
2009-12-14 08:20:58 51°21.153 2°50.877 3.5 357 0.9 102260 34
2009-12-14 08:21:04 51°21.17 2°50.866 4.8 359 0.9 102260 34
2009-12-14 08:21:09 51°21.184 2°50.857 5.8 359 0.9 102260 32
2009-12-14 08:21:13 51°21.195 2°50.849 5.3 358 0.9 102260 32
2009-12-14 08:21:18 51°21.209 2°50.839 5.6 358 0.9 102260 36
2009-12-14 08:21:24 51°21.225 2°50.828 6.3 358 0.9 102260 36
2009-12-14 08:21:29 51°21.24 2°50.818 6.4 -999 0.9 102260 36
2009-12-14 08:21:34 51°21.254 2°50.809 5.5 3 0.9 102260 36
2009-12-14 08:21:38 51°21.265 2°50.802 4.8 1 0.9 102260 33
2009-12-14 08:21:44 51°21.282 2°50.791 4.9 3 0.9 102260 33
2009-12-14 08:21:48 51°21.293 2°50.783 4.6 -999 0.9 102260 33
2009-12-14 08:21:53 51°21.307 2°50.774 3.7 359 0.9 102260 33
2009-12-14 08:21:58 51°21.321 2°50.763 4.9 1 0.9 102250 32
2009-12-14 08:22:04 51°21.338 2°50.751 3.9 3 0.9 102250 32
2009-12-14 08:22:08 51°21.349 2°50.742 4 360 0.9 102260 36
2009-12-14 08:22:14 51°21.365 2°50.731 4.5 359 0.9 102260 36
2009-12-14 08:22:18 51°21.376 2°50.723 4.7 357 0.8 102260 32
2009-12-14 08:22:24 51°21.393 2°50.711 4 358 0.8 102260 32
2009-12-14 08:22:28 51°21.405 2°50.703 4.6 357 0.8 102260 36
2009-12-14 08:22:33 51°21.419 2°50.695 4.9 358 0.8 102260 36
2009-12-14 08:22:38 51°21.434 2°50.687 4.9 -999 0.9 102260 36
2009-12-14 08:22:44 51°21.451 2°50.679 4.2 358 0.9 102260 36
2009-12-14 08:22:49 51°21.465 2°50.671 4.9 2 0.8 102260 34
2009-12-14 08:22:53 51°21.477 2°50.666 4.4 2 0.8 102260 34
2009-12-14 08:22:58 51°21.492 2°50.66 4.3 358 0.8 102260 32
2009-12-14 08:23:04 51°21.51 2°50.653 4.1 359 0.8 102260 32
2009-12-14 08:23:09 51°21.525 2°50.647 5.4 356 0.8 102260 34
2009-12-14 08:23:13 51°21.537 2°50.643 5.1 353 0.8 102260 34
2009-12-14 08:23:18 51°21.551 2°50.638 4.7 354 0.8 102260 32
2009-12-14 08:23:24 51°21.569 2°50.632 4.9 357 0.8 102260 32
2009-12-14 08:23:29 51°21.584 2°50.63 4.5 357 0.9 102260 32
2009-12-14 08:23:33 51°21.595 2°50.627 5.4 356 0.9 102260 32
2009-12-14 08:23:38 51°21.61 2°50.626 6.3 357 0.9 102260 36
2009-12-14 08:23:44 51°21.628 2°50.623 6.8 359 0.9 102260 36
2009-12-14 08:23:48 51°21.64 2°50.622 5.8 1 0.9 102260 32
2009-12-14 08:23:53 51°21.655 2°50.621 7.8 357 0.9 102260 32
2009-12-14 08:23:58 51°21.67 2°50.621 8.7 359 0.9 102260 34
2009-12-14 08:24:04 51°21.688 2°50.619 5.6 1 0.9 102260 34
2009-12-14 08:24:08 51°21.7 2°50.619 7.3 355 0.9 102260 33
2009-12-14 08:24:13 51°21.715 2°50.619 8.3 358 0.9 102260 33
2009-12-14 08:24:18 51°21.73 2°50.619 8.8 356 1 102260 35
2009-12-14 08:24:24 51°21.748 2°50.619 6.8 -999 1 102260 35
2009-12-14 08:24:29 51°21.763 2°50.618 7.1 357 1 102250 34
2009-12-14 08:24:34 51°21.778 2°50.618 7.2 359 1 102250 34
2009-12-14 08:24:38 51°21.79 2°50.618 7.1 360 1 102260 35
2009-12-14 08:24:44 51°21.807 2°50.617 7.1 -999 1 102260 35
2009-12-14 08:24:49 51°21.822 2°50.617 6.6 359 1 102250 33
2009-12-14 08:24:53 51°21.834 2°50.617 5.9 3 1 102250 33
2009-12-14 08:24:59 51°21.852 2°50.616 6.7 359 1 102250 36
2009-12-14 08:25:04 51°21.867 2°50.616 5.7 355 1 102250 36
2009-12-14 08:25:08 51°21.879 2°50.617 6.9 355 1 102250 33
2009-12-14 08:25:13 51°21.894 2°50.616 9.6 354 1 102250 33
2009-12-14 08:25:18 51°21.909 2°50.617 7.7 1 1 102250 35
2009-12-14 08:25:24 51°21.927 2°50.616 8.7 359 1 102250 35
2009-12-14 08:25:28 51°21.939 2°50.617 7.3 359 1.1 102260 33
2009-12-14 08:25:33 51°21.954 2°50.617 7.4 -999 1.1 102260 33
2009-12-14 08:25:38 51°21.969 2°50.617 7.6 3 1.1 102260 33
2009-12-14 08:25:44 51°21.987 2°50.617 6.4 2 1.1 102260 33
2009-12-14 08:25:48 51°21.999 2°50.617 6.6 4 1.1 102250 34
2009-12-14 08:25:53 51°22.014 2°50.617 5.9 3 1.1 102250 34
2009-12-14 08:25:58 51°22.029 2°50.616 6.9 2 1.1 102250 35
2009-12-14 08:26:04 51°22.047 2°50.616 7.5 -999 1.1 102250 35
2009-12-14 08:26:09 51°22.062 2°50.616 7.5 -999 1 102250 34
2009-12-14 08:26:14 51°22.077 2°50.615 7.4 357 1 102250 34
2009-12-14 08:26:18 51°22.089 2°50.615 7 359 1.1 102250 33
2009-12-14 08:26:24 51°22.107 2°50.615 6.4 358 1.1 102250 33
2009-12-14 08:26:28 51°22.119 2°50.615 6.7 357 1.1 102240 33
2009-12-14 08:26:33 51°22.134 2°50.615 6.5 359 1.1 102240 33
2009-12-14 08:26:39 51°22.152 2°50.614 7.1 359 1 102240 36
2009-12-14 08:26:44 51°22.167 2°50.615 7.3 -999 1 102240 36
2009-12-14 08:26:48 51°22.179 2°50.614 6.9 1 1 102240 36
2009-12-14 08:26:54 51°22.198 2°50.614 6.3 2 1 102240 36
2009-12-14 08:26:58 51°22.21 2°50.613 6.4 3 1 102250 33
2009-12-14 08:27:04 51°22.227 2°50.613 7.9 -999 1 102250 33
2009-12-14 08:27:08 51°22.239 2°50.613 7.5 359 1 102240 33
2009-12-14 08:27:13 51°22.254 2°50.613 7.4 360 1 102240 33
2009-12-14 08:27:19 51°22.272 2°50.612 7 2 1 102250 34
2009-12-14 08:27:24 51°22.287 2°50.612 6.5 357 1 102250 34
2009-12-14 08:27:28 51°22.299 2°50.611 9.5 358 1 102240 35
2009-12-14 08:27:33 51°22.315 2°50.612 6.5 355 1 102240 35
2009-12-14 08:27:38 51°22.33 2°50.61 7.1 355 1 102240 36
2009-12-14 08:27:44 51°22.348 2°50.61 7.7 354 1 102240 36
2009-12-14 08:27:48 51°22.36 2°50.609 7.4 356 1.1 102240 36
2009-12-14 08:27:53 51°22.375 2°50.61 7.3 357 1.1 102240 36
2009-12-14 08:27:58 51°22.39 2°50.609 6.1 358 1.1 102240 35
2009-12-14 08:28:04 51°22.408 2°50.608 6.4 357 1.1 102240 35
2009-12-14 08:28:09 51°22.423 2°50.607 7 358 1.1 102240 32
2009-12-14 08:28:13 51°22.435 2°50.606 6.7 356 1.1 102240 32
2009-12-14 08:28:18 51°22.45 2°50.606 7.2 357 1.1 102250 33
2009-12-14 08:28:24 51°22.468 2°50.606 5.7 359 1.1 102250 33
2009-12-14 08:28:29 51°22.483 2°50.605 7 357 1 102240 33
2009-12-14 08:28:34 51°22.498 2°50.604 7 357 1 102240 33
2009-12-14 08:28:38 51°22.51 2°50.604 6.9 357 1 102240 33
2009-12-14 08:28:44 51°22.528 2°50.603 6.7 -999 1 102240 33
2009-12-14 08:28:48 51°22.54 2°50.603 6.8 2 1.1 102250 33
2009-12-14 08:28:53 51°22.556 2°50.602 6.4 1 1.1 102250 33
2009-12-14 08:28:59 51°22.574 2°50.601 5.7 359 1.1 102240 33
2009-12-14 08:29:04 51°22.589 2°50.6 6.3 358 1.1 102240 33
2009-12-14 08:29:08 51°22.601 2°50.6 5.4 1 1.1 102240 36
2009-12-14 08:29:13 51°22.617 2°50.599 5 3 1.1 102240 36
2009-12-14 08:29:18 51°22.632 2°50.598 6 356 1 102240 34
2009-12-14 08:29:24 51°22.65 2°50.597 5.4 359 1 102240 34
2009-12-14 08:29:29 51°22.665 2°50.596 8 3 1 102250 33
2009-12-14 08:29:33 51°22.677 2°50.595 6.6 9 1 102250 33
2009-12-14 08:29:38 51°22.692 2°50.594 5.8 4 1 102240 34
2009-12-14 08:29:44 51°22.71 2°50.594 6.6 8 1 102240 34
2009-12-14 08:29:49 51°22.726 2°50.592 6.2 6 1.1 102240 34
2009-12-14 08:29:53 51°22.738 2°50.591 5.5 8 1.1 102240 34
2009-12-14 08:29:58 51°22.753 2°50.591 7.1 358 1.1 102240 36
2009-12-14 08:30:04 51°22.772 2°50.59 7.4 1 1.1 102240 36
2009-12-14 08:30:09 51°22.787 2°50.589 6.4 4 1.2 102240 33
2009-12-14 08:30:13 51°22.799 2°50.589 6.6 3 1.2 102240 33
2009-12-14 08:30:18 51°22.814 2°50.588 7.5 5 1.2 102250 33
2009-12-14 08:30:24 51°22.832 2°50.587 7.3 6 1.2 102250 33
2009-12-14 08:30:29 51°22.847 2°50.586 6.7 5 1.2 102260 36
2009-12-14 08:30:34 51°22.862 2°50.586 5.7 6 1.2 102260 36
2009-12-14 08:30:38 51°22.874 2°50.585 6.2 1 1.2 102260 35
2009-12-14 08:30:44 51°22.892 2°50.585 5.7 1 1.2 102260 35
2009-12-14 08:30:48 51°22.904 2°50.584 6 5 1.2 102250 32
2009-12-14 08:30:53 51°22.919 2°50.584 6.5 1 1.2 102250 32
2009-12-14 08:30:58 51°22.934 2°50.583 6.7 3 1.2 102240 33
2009-12-14 08:31:04 51°22.952 2°50.582 6.6 4 1.2 102240 33
2009-12-14 08:31:09 51°22.967 2°50.582 7.4 3 1.2 102250 34
2009-12-14 08:31:14 51°22.982 2°50.582 7.3 2 1.2 102250 34
2009-12-14 08:31:18 51°22.994 2°50.582 6.8 360 1.2 102240 35
2009-12-14 08:31:24 51°23.012 2°50.581 6.3 6 1.2 102240 35
2009-12-14 08:31:29 51°23.027 2°50.581 6.2 1 1.3 102240 35
2009-12-14 08:31:33 51°23.038 2°50.581 7.4 -999 1.3 102240 35
2009-12-14 08:31:39 51°23.056 2°50.581 7.8 2 1.3 102240 33
2009-12-14 08:31:44 51°23.071 2°50.58 7.8 3 1.3 102240 33
2009-12-14 08:31:48 51°23.083 2°50.579 6.8 4 1.3 102240 35
2009-12-14 08:31:53 51°23.098 2°50.579 6.4 1 1.3 102240 35
2009-12-14 08:31:58 51°23.112 2°50.578 7 1 1.3 102240 35
2009-12-14 08:32:04 51°23.13 2°50.577 6.3 359 1.3 102240 35
2009-12-14 08:32:09 51°23.145 2°50.576 6.8 4 1.3 102240 36
2009-12-14 08:32:13 51°23.156 2°50.576 6.9 3 1.3 102240 36
2009-12-14 08:32:18 51°23.171 2°50.574 6 5 1.3 102240 34
2009-12-14 08:32:24 51°23.188 2°50.574 7.3 8 1.3 102240 34
2009-12-14 08:32:28 51°23.2 2°50.574 7 8 1.3 102240 33
2009-12-14 08:32:33 51°23.215 2°50.573 6.1 7 1.3 102240 33
2009-12-14 08:32:39 51°23.233 2°50.572 5.9 7 1.2 102240 34
2009-12-14 08:32:44 51°23.247 2°50.571 6 7 1.2 102240 34
2009-12-14 08:32:49 51°23.262 2°50.571 5.8 4 1.2 102240 36
2009-12-14 08:32:53 51°23.274 2°50.571 5.9 6 1.2 102240 36
2009-12-14 08:32:58 51°23.289 2°50.57 6 6 1.2 102240 36
2009-12-14 08:33:04 51°23.307 2°50.569 6.1 4 1.2 102240 36
2009-12-14 08:33:08 51°23.319 2°50.569 6.1 5 1.3 102240 35
2009-12-14 08:33:14 51°23.337 2°50.567 6 6 1.3 102240 35
2009-12-14 08:33:18 51°23.348 2°50.567 5.8 4 1.3 102240 33
2009-12-14 08:33:24 51°23.366 2°50.565 6.2 -999 1.3 102240 33
2009-12-14 08:33:28 51°23.378 2°50.565 6.5 358 1.3 102250 33
2009-12-14 08:33:33 51°23.393 2°50.564 6.4 6 1.3 102250 33
2009-12-14 08:33:39 51°23.41 2°50.563 7.1 -999 1.3 102240 34
2009-12-14 08:33:44 51°23.425 2°50.562 6.5 359 1.3 102240 34
2009-12-14 08:33:48 51°23.437 2°50.562 6.2 2 1.3 102240 35
2009-12-14 08:33:53 51°23.452 2°50.561 6.2 6 1.3 102240 35
2009-12-14 08:33:59 51°23.469 2°50.56 4.9 2 1.3 102250 36
2009-12-14 08:34:04 51°23.484 2°50.559 6.6 358 1.3 102250 36
2009-12-14 08:34:09 51°23.499 2°50.558 6.9 358 1.3 102240 36
2009-12-14 08:34:13 51°23.511 2°50.558 6.1 360 1.3 102240 36
2009-12-14 08:34:18 51°23.526 2°50.557 6.1 359 1.3 102250 35
2009-12-14 08:34:24 51°23.543 2°50.556 5.8 3 1.3 102250 35
2009-12-14 08:34:28 51°23.555 2°50.554 5.4 2 1.3 102240 36
2009-12-14 08:34:33 51°23.57 2°50.553 5.6 1 1.3 102240 36
2009-12-14 08:34:38 51°23.585 2°50.553 5.3 360 1.3 102250 34
2009-12-14 08:34:44 51°23.602 2°50.552 5.8 4 1.3 102250 34
2009-12-14 08:34:48 51°23.614 2°50.551 4 2 1.3 102240 33
2009-12-14 08:34:53 51°23.629 2°50.55 3.1 1 1.3 102240 33
2009-12-14 08:34:58 51°23.644 2°50.55 5.4 3 1.3 102250 36
2009-12-14 08:35:04 51°23.661 2°50.548 5.8 6 1.3 102250 36
2009-12-14 08:35:09 51°23.676 2°50.548 6.5 4 1.3 102250 36
2009-12-14 08:35:13 51°23.688 2°50.547 6.2 9 1.3 102250 36
2009-12-14 08:35:18 51°23.703 2°50.546 5.8 6 1.3 102250 36
2009-12-14 08:35:24 51°23.721 2°50.546 6.9 5 1.3 102250 36
2009-12-14 08:35:29 51°23.736 2°50.545 7 4 1.3 102250 35
2009-12-14 08:35:34 51°23.75 2°50.545 7.5 4 1.3 102250 35
2009-12-14 08:35:38 51°23.762 2°50.544 6.5 358 1.3 102250 36
2009-12-14 08:35:44 51°23.78 2°50.544 7.6 4 1.3 102250 36
2009-12-14 08:35:48 51°23.792 2°50.544 7 -999 1.4 102240 37
2009-12-14 08:35:53 51°23.807 2°50.542 8.5 357 1.4 102240 37
2009-12-14 08:35:59 51°23.825 2°50.542 8.5 357 1.4 102240 33
2009-12-14 08:36:04 51°23.84 2°50.542 7.7 360 1.4 102240 33
2009-12-14 08:36:08 51°23.852 2°50.542 7.4 358 1.4 102240 35
2009-12-14 08:36:13 51°23.866 2°50.541 7.9 360 1.4 102240 35
2009-12-14 08:36:18 51°23.881 2°50.541 7.2 3 1.4 102240 34
2009-12-14 08:36:24 51°23.899 2°50.54 6.6 2 1.4 102240 34
2009-12-14 08:36:28 51°23.911 2°50.54 5.9 6 1.4 102240 33
2009-12-14 08:36:33 51°23.926 2°50.539 6.1 2 1.4 102240 33
2009-12-14 08:36:38 51°23.941 2°50.537 7.5 357 1.4 102240 33
2009-12-14 08:36:44 51°23.959 2°50.536 7.5 358 1.4 102240 33
2009-12-14 08:36:48 51°23.971 2°50.535 7.7 358 1.4 102230 35
2009-12-14 08:36:53 51°23.985 2°50.534 6.9 359 1.4 102230 35
2009-12-14 08:36:58 51°24 2°50.532 6.8 -999 1.4 102240 36
2009-12-14 08:37:04 51°24.018 2°50.532 6.3 358 1.4 102240 36
2009-12-14 08:37:08 51°24.03 2°50.531 6.7 359 1.4 102240 33
2009-12-14 08:37:14 51°24.048 2°50.53 8.2 358 1.4 102240 33
2009-12-14 08:37:18 51°24.06 2°50.528 7.4 1 1.4 102240 36
2009-12-14 08:37:24 51°24.078 2°50.527 8.3 357 1.4 102240 36
2009-12-14 08:37:28 51°24.089 2°50.526 8.1 355 1.4 102240 35
2009-12-14 08:37:33 51°24.104 2°50.525 8.9 359 1.4 102240 35
2009-12-14 08:37:38 51°24.119 2°50.523 8 359 1.4 102250 35
2009-12-14 08:37:44 51°24.137 2°50.522 7.3 2 1.4 102250 35
2009-12-14 08:37:49 51°24.151 2°50.52 6.4 1 1.4 102240 35
2009-12-14 08:37:53 51°24.163 2°50.519 6.4 359 1.4 102240 35
2009-12-14 08:37:58 51°24.178 2°50.518 6.3 359 1.4 102240 36
2009-12-14 08:38:04 51°24.196 2°50.517 5.9 357 1.4 102240 36
2009-12-14 08:38:08 51°24.207 2°50.516 5.7 -999 1.4 102240 35
2009-12-14 08:38:13 51°24.222 2°50.515 5.5 1 1.4 102240 35
2009-12-14 08:38:19 51°24.24 2°50.513 5.5 359 1.4 102250 35
2009-12-14 08:38:24 51°24.255 2°50.512 6.4 358 1.4 102250 35
2009-12-14 08:38:28 51°24.267 2°50.512 6.3 -999 1.4 102250 32
2009-12-14 08:38:33 51°24.282 2°50.511 5.8 6 1.4 102250 32
2009-12-14 08:38:38 51°24.296 2°50.511 5.9 359 1.4 102250 34
2009-12-14 08:38:44 51°24.314 2°50.51 4.5 4 1.4 102250 34
2009-12-14 08:38:49 51°24.329 2°50.51 5.9 357 1.4 102250 35
2009-12-14 08:38:53 51°24.341 2°50.509 6.9 5 1.4 102250 35
2009-12-14 08:38:58 51°24.356 2°50.508 6.8 4 1.4 102250 35
2009-12-14 08:39:04 51°24.374 2°50.507 6.9 1 1.4 102250 35
2009-12-14 08:39:09 51°24.389 2°50.505 7.2 3 1.4 102250 35
2009-12-14 08:39:14 51°24.404 2°50.504 8.2 360 1.4 102250 35
2009-12-14 08:39:18 51°24.416 2°50.504 7.4 4 1.4 102250 34
2009-12-14 08:39:24 51°24.433 2°50.503 8 1 1.4 102250 34
2009-12-14 08:39:29 51°24.448 2°50.502 7 2 1.4 102250 33
2009-12-14 08:39:33 51°24.46 2°50.502 6.6 3 1.4 102250 33
2009-12-14 08:39:38 51°24.475 2°50.501 6.4 5 1.5 102240 35
2009-12-14 08:39:44 51°24.493 2°50.5 6.7 5 1.5 102240 35
2009-12-14 08:39:49 51°24.508 2°50.498 8.2 359 1.4 102240 33
2009-12-14 08:39:54 51°24.523 2°50.498 7.6 359 1.4 102240 33
2009-12-14 08:39:58 51°24.535 2°50.497 7.3 7 1.4 102240 34
2009-12-14 08:40:04 51°24.552 2°50.496 7.4 6 1.4 102240 34
2009-12-14 08:40:08 51°24.564 2°50.495 7.3 6 1.4 102250 33
2009-12-14 08:40:13 51°24.579 2°50.494 6.3 7 1.4 102250 33
2009-12-14 08:40:19 51°24.597 2°50.493 6.1 6 1.4 102250 36
2009-12-14 08:40:24 51°24.612 2°50.492 6.5 4 1.4 102250 36
2009-12-14 08:40:28 51°24.624 2°50.492 5.9 7 1.4 102240 34
2009-12-14 08:40:33 51°24.639 2°50.491 5.6 5 1.4 102240 34
2009-12-14 08:40:39 51°24.657 2°50.49 5.4 7 1.4 102250 34
2009-12-14 08:40:44 51°24.672 2°50.49 5.7 5 1.4 102250 34
2009-12-14 08:40:49 51°24.687 2°50.49 5.8 6 1.4 102250 36
2009-12-14 08:40:53 51°24.699 2°50.49 5.9 2 1.4 102250 36
2009-12-14 08:40:58 51°24.715 2°50.49 3.8 5 1.4 102250 33
2009-12-14 08:41:04 51°24.733 2°50.489 4.2 7 1.4 102250 33
2009-12-14 08:41:08 51°24.745 2°50.489 4.3 3 1.4 102260 36
2009-12-14 08:41:13 51°24.76 2°50.489 3.9 9 1.4 102260 36
2009-12-14 08:41:18 51°24.775 2°50.488 3.8 6 1.4 102250 37
2009-12-14 08:41:23 51°24.79 2°50.488 4.6 360 1.4 102250 37
2009-12-14 08:41:29 51°24.808 2°50.487 4 4 1.4 102250 32
2009-12-14 08:41:33 51°24.82 2°50.487 5.9 358 1.4 102250 32
2009-12-14 08:41:38 51°24.835 2°50.486 6 357 1.5 102260 33
2009-12-14 08:41:44 51°24.853 2°50.486 5.8 357 1.5 102260 33
2009-12-14 08:41:48 51°24.865 2°50.486 5.7 3 1.5 102250 35
2009-12-14 08:41:53 51°24.88 2°50.485 6 358 1.5 102250 35
2009-12-14 08:41:59 51°24.898 2°50.485 6.9 359 1.5 102260 35
2009-12-14 08:42:04 51°24.913 2°50.484 6.1 1 1.5 102260 35
2009-12-14 08:42:08 51°24.925 2°50.484 6.2 359 1.6 102260 36
2009-12-14 08:42:13 51°24.94 2°50.483 5.8 358 1.6 102260 36
2009-12-14 08:42:19 51°24.958 2°50.482 4.6 357 1.6 102260 34
2009-12-14 08:42:24 51°24.973 2°50.481 7.4 357 1.6 102260 34
2009-12-14 08:42:28 51°24.985 2°50.481 7.4 356 1.6 102250 36
2009-12-14 08:42:34 51°25.003 2°50.48 7.7 -999 1.6 102250 36
2009-12-14 08:42:38 51°25.015 2°50.479 7.4 357 1.5 102250 34
2009-12-14 08:42:44 51°25.033 2°50.478 6.6 359 1.5 102250 34
2009-12-14 08:42:49 51°25.048 2°50.476 6.2 359 1.5 102260 33
2009-12-14 08:42:53 51°25.06 2°50.475 6.5 356 1.5 102260 33
2009-12-14 08:42:58 51°25.076 2°50.475 7.1 357 1.5 102250 35
2009-12-14 08:43:04 51°25.094 2°50.474 6.4 358 1.5 102250 35
2009-12-14 08:43:08 51°25.105 2°50.474 7.5 357 1.6 102250 36
2009-12-14 08:43:13 51°25.12 2°50.473 7.4 355 1.6 102250 36
2009-12-14 08:43:17 51°25.132 2°50.472 7.5 1 1.5 102260 35
2009-12-14 08:43:24 51°25.153 2°50.47 8.6 1 1.5 102260 35
2009-12-14 08:43:29 51°25.167 2°50.469 8.1 357 1.6 102260 36
2009-12-14 08:43:33 51°25.18 2°50.468 7.7 357 1.6 102260 36
2009-12-14 08:43:38 51°25.194 2°50.467 6.7 357 1.6 102250 34
2009-12-14 08:43:44 51°25.212 2°50.466 7.6 360 1.6 102250 34
2009-12-14 08:43:49 51°25.227 2°50.464 7.1 358 1.6 102250 34
2009-12-14 08:43:53 51°25.239 2°50.463 6.7 359 1.6 102250 34
2009-12-14 08:43:58 51°25.254 2°50.462 6.9 3 1.5 102250 36
2009-12-14 08:44:04 51°25.272 2°50.461 6.2 5 1.5 102250 36
2009-12-14 08:44:09 51°25.287 2°50.46 7.2 4 1.6 102260 35
2009-12-14 08:44:14 51°25.302 2°50.459 6.6 2 1.6 102260 35
2009-12-14 08:44:18 51°25.314 2°50.458 7.3 3 1.6 102250 34
2009-12-14 08:44:24 51°25.332 2°50.458 6.5 2 1.6 102250 34
2009-12-14 08:44:28 51°25.344 2°50.457 6.9 359 1.6 102250 37
2009-12-14 08:44:33 51°25.36 2°50.456 8 -999 1.6 102250 37
2009-12-14 08:44:38 51°25.375 2°50.455 7.3 359 1.6 102250 37
2009-12-14 08:44:44 51°25.393 2°50.455 7 1 1.6 102250 37
2009-12-14 08:44:49 51°25.408 2°50.454 7.2 1 1.6 102260 36
2009-12-14 08:44:53 51°25.42 2°50.453 7.3 1 1.6 102260 36
2009-12-14 08:44:58 51°25.435 2°50.453 6.3 -999 1.6 102250 34
2009-12-14 08:45:04 51°25.453 2°50.451 5.8 3 1.6 102250 34
2009-12-14 08:45:09 51°25.468 2°50.451 7.1 358 1.5 102250 36
2009-12-14 08:45:13 51°25.48 2°50.45 7.5 -999 1.5 102250 36
2009-12-14 08:45:19 51°25.498 2°50.449 6.3 355 1.5 102260 33
2009-12-14 08:45:24 51°25.513 2°50.449 6.7 358 1.5 102260 33
2009-12-14 08:45:28 51°25.525 2°50.448 5.7 356 1.5 102260 35
2009-12-14 08:45:33 51°25.54 2°50.447 5.4 360 1.5 102260 35
2009-12-14 08:45:39 51°25.558 2°50.447 6 359 1.5 102250 35
2009-12-14 08:45:44 51°25.573 2°50.446 5.4 358 1.5 102250 35
2009-12-14 08:45:49 51°25.589 2°50.446 5.9 359 1.5 102260 33
2009-12-14 08:45:53 51°25.601 2°50.446 5.7 358 1.5 102260 33
2009-12-14 08:45:58 51°25.616 2°50.445 5.7 354 1.5 102250 34
2009-12-14 08:46:04 51°25.634 2°50.445 6.2 353 1.5 102250 34
2009-12-14 08:46:09 51°25.649 2°50.444 6.1 354 1.5 102260 33
2009-12-14 08:46:13 51°25.661 2°50.444 5.7 355 1.5 102260 33
2009-12-14 08:46:18 51°25.676 2°50.444 5.2 356 1.5 102260 34
2009-12-14 08:46:24 51°25.695 2°50.443 6.3 356 1.5 102260 34
2009-12-14 08:46:28 51°25.707 2°50.443 5.6 358 1.5 102260 35
2009-12-14 08:46:34 51°25.725 2°50.442 5.8 1 1.5 102260 35
2009-12-14 08:46:38 51°25.737 2°50.442 5.1 2 1.5 102260 35
2009-12-14 08:46:44 51°25.755 2°50.441 6.7 359 1.5 102260 35
2009-12-14 08:46:48 51°25.767 2°50.442 5.9 2 1.5 102260 33
2009-12-14 08:46:53 51°25.782 2°50.44 5.8 1 1.5 102260 33
2009-12-14 08:46:58 51°25.797 2°50.441 5.5 358 1.5 102250 36
2009-12-14 08:47:04 51°25.815 2°50.439 6 360 1.5 102250 36
2009-12-14 08:47:09 51°25.83 2°50.439 6.8 2 1.5 102260 37
2009-12-14 08:47:13 51°25.842 2°50.439 6.6 10 1.5 102260 37
2009-12-14 08:47:18 51°25.858 2°50.44 7.9 8 1.5 102250 37
2009-12-14 08:47:24 51°25.876 2°50.439 6.1 7 1.5 102250 37
2009-12-14 08:47:29 51°25.891 2°50.44 5.7 2 1.5 102260 36
2009-12-14 08:47:33 51°25.903 2°50.44 6.1 358 1.5 102260 36
2009-12-14 08:47:38 51°25.918 2°50.439 7.1 356 1.6 102250 36
2009-12-14 08:47:44 51°25.936 2°50.44 7.7 -999 1.6 102250 36
2009-12-14 08:47:48 51°25.949 2°50.439 7 1 1.6 102250 33
2009-12-14 08:47:53 51°25.964 2°50.439 6.5 1 1.6 102250 33
2009-12-14 08:47:57 51°25.976 2°50.439 7 358 1.6 102250 36
2009-12-14 08:48:03 51°25.994 2°50.438 6.6 357 1.6 102250 36
2009-12-14 08:48:09 51°26.012 2°50.437 7.6 360 1.6 102260 36
2009-12-14 08:48:13 51°26.024 2°50.437 6.3 357 1.6 102260 36
2009-12-14 08:48:18 51°26.039 2°50.436 6.3 359 1.6 102240 33
2009-12-14 08:48:24 51°26.057 2°50.436 8.6 356 1.6 102240 33
2009-12-14 08:48:29 51°26.072 2°50.436 7.9 360 1.6 102250 36
2009-12-14 08:48:34 51°26.088 2°50.435 6.7 3 1.6 102250 36
2009-12-14 08:48:38 51°26.099 2°50.435 6.8 1 1.7 102250 33
2009-12-14 08:48:44 51°26.117 2°50.435 6.6 354 1.7 102250 33
2009-12-14 08:48:48 51°26.129 2°50.434 7.1 354 1.7 102250 35
2009-12-14 08:48:53 51°26.144 2°50.433 8 356 1.7 102250 35
2009-12-14 08:48:58 51°26.159 2°50.433 8.4 356 1.6 102240 33
2009-12-14 08:49:04 51°26.177 2°50.432 8.1 354 1.6 102240 33
2009-12-14 08:49:08 51°26.189 2°50.432 7.7 355 1.7 102250 35
2009-12-14 08:49:13 51°26.205 2°50.432 7.7 357 1.7 102250 35
2009-12-14 08:49:19 51°26.223 2°50.432 7.2 359 1.7 102250 34
2009-12-14 08:49:24 51°26.238 2°50.431 6.2 355 1.7 102250 34
2009-12-14 08:49:29 51°26.253 2°50.432 6.7 355 1.6 102240 33
2009-12-14 08:49:33 51°26.265 2°50.431 7.6 1 1.6 102240 33
2009-12-14 08:49:39 51°26.283 2°50.432 6.6 359 1.6 102240 36
2009-12-14 08:49:44 51°26.298 2°50.432 5.7 356 1.6 102240 36
2009-12-14 08:49:48 51°26.31 2°50.433 6.7 355 1.6 102250 36
2009-12-14 08:49:53 51°26.325 2°50.433 6.9 356 1.6 102250 36
2009-12-14 08:49:58 51°26.341 2°50.433 7.1 -999 1.6 102250 36
2009-12-14 08:50:04 51°26.359 2°50.432 7.1 1 1.6 102250 36
2009-12-14 08:50:09 51°26.374 2°50.432 6.2 2 1.6 102250 33
2009-12-14 08:50:13 51°26.386 2°50.431 6.5 4 1.6 102250 33
2009-12-14 08:50:18 51°26.401 2°50.432 7.7 358 1.6 102250 36
2009-12-14 08:50:24 51°26.419 2°50.431 7.5 355 1.6 102250 36
2009-12-14 08:50:28 51°26.431 2°50.431 7.3 -999 1.6 102260 36
2009-12-14 08:50:33 51°26.446 2°50.431 6.7 356 1.6 102260 36
2009-12-14 08:50:39 51°26.464 2°50.43 7.2 355 1.7 102260 34
2009-12-14 08:50:44 51°26.479 2°50.43 5.8 356 1.7 102260 34
2009-12-14 08:50:49 51°26.494 2°50.429 6.2 355 1.6 102240 33
2009-12-14 08:50:53 51°26.506 2°50.429 5.5 356 1.6 102240 33
2009-12-14 08:50:58 51°26.522 2°50.428 5.3 355 1.6 102240 33
2009-12-14 08:51:04 51°26.54 2°50.428 5.9 353 1.6 102240 33
2009-12-14 08:51:08 51°26.552 2°50.427 6.5 3 1.6 102250 33
2009-12-14 08:51:14 51°26.57 2°50.427 6.2 359 1.6 102250 33
2009-12-14 08:51:18 51°26.582 2°50.426 6 3 1.6 102250 36
2009-12-14 08:51:24 51°26.6 2°50.425 5.5 358 1.6 102250 36
2009-12-14 08:51:28 51°26.612 2°50.425 5.4 355 1.6 102250 33
2009-12-14 08:51:33 51°26.627 2°50.424 4.6 3 1.6 102250 33
2009-12-14 08:51:39 51°26.645 2°50.424 4.4 6 1.7 102250 33
2009-12-14 08:51:44 51°26.66 2°50.423 6.2 357 1.7 102250 33
2009-12-14 08:51:49 51°26.676 2°50.423 5.5 -999 1.6 102240 32
2009-12-14 08:51:53 51°26.688 2°50.423 4.7 4 1.6 102240 32